Flag Weather past 2 weeks in Puerto Vallarta, Jalisco, Mexico

Now
79 °F

Scattered clouds.


Feels Like: 79 °F
Forecast: 64 / 87 °F
Wind: 5 mph from Northeast

Location: Puerto Vallarta / Lic

Current Time: Nov 28, 2014 at 10:23:59 AM

Latest Report: Nov 28, 2014 at 9:51 AM


Visibility: 15 mi

Pressure: 29.96 "Hg

Humidity: 34%

Dew point: 48 °F

Location of Puerto VallartaLocation

Historic Weather in Puerto Vallarta — Graph

°F

Puerto Vallarta temperature yesterday

Maximum temperature yesterday: 86 °F (at 2:51 PM)
Minimum temperature yesterday: 59 °F (at 7:47 AM)
Average temperature yesterday: 71 °F

Past Weeks' High & Low Weather Summary

 TemperatureHumidityPressure
High90 °F (Nov 26, 12:46 PM)100% (Nov 14, 2:45 AM)30.03 "Hg (Nov 14, 2:45 AM)
Low59 °F (Nov 26, 5:47 AM)24% (Nov 26, 12:46 PM)29.82 "Hg (Nov 23, 4:43 PM)
Average73 °F79%29.93 "Hg
* Reported Nov 13 6:45 AM — Nov 28 6:45 AM, Puerto Vallarta, Weather by CustomWeather, © 2014

Note: Actual official high and low records may vary slightly from our data, if they occured in-between our weather recording intervals... More about our weather records

Advertising

Puerto Vallarta weather history for previous 24 hours

 ConditionsComfort  
Time TempWeatherWind HumidityBarometerVisibility
6:45 AM
Nov 28
66 °FClear.7 mph43%29.91 "Hg15 mi
5:47 AM64 °FClear.13 mph49%29.88 "Hg12 mi
4:45 AM63 °FClear.3 mph68%29.88 "Hg12 mi
3:46 AM63 °FClear.3 mph73%29.89 "Hg12 mi
2:47 AM63 °FClear.6 mph73%29.89 "Hg12 mi
1:45 AM63 °FClear.3 mph77%29.91 "Hg12 mi
11:45 PM
Nov 27
64 °FClear.5 mph83%29.93 "Hg12 mi
10:45 PM64 °FClear.5 mph88%29.94 "Hg12 mi
9:45 PM68 °FClear.5 mph78%29.94 "Hg12 mi
8:49 PM68 °FClear.No wind88%29.93 "Hg12 mi
7:46 PM72 °FClear.No wind83%29.91 "Hg12 mi
6:46 PM73 °FPassing clouds.No wind78%29.89 "Hg15 mi
4:45 PM84 °FPartly sunny.6 mph37%29.85 "Hg15 mi
3:47 PM84 °FPartly sunny.No wind43%29.85 "Hg15 mi
2:51 PM86 °FPartly sunny.7 mph38%29.84 "Hg15 mi
1:45 PM84 °FScattered clouds.5 mph40%29.86 "Hg15 mi
12:50 PM84 °FBroken clouds.7 mph43%29.89 "Hg15 mi
Weather by CustomWeather, © 2014

See weather overviewHow to use our weather pages